GW6273 Weather Reports


time (UTC)temp
C
wind
direction
speed
KPH
gust
KPH
rain 1hr
cm
rain 24hr
cm
rain mn
cm
humidity
%
barometer
mb
20260906125601 24 199 0.0 1.6 0.00 0.00 0.00 97 981.3
20260906125101 23 322 0.0 1.6 0.00 0.00 0.00 98 981.2
20260906124556 23 119 0.0 3.2 0.00 0.00 0.00 98 981.0
20260906124056 23 249 0.0 1.6 0.00 0.00 0.00 98 981.3
20260906123602 23 186 0.0 1.6 0.00 0.00 0.00 99 981.1
20260906123056 23 242 0.0 1.6 0.00 0.00 0.00 99 981.0
20260906122601 22 231 3.2 3.2 0.00 0.00 0.00 99 980.8
20260906122056 22 299 0.0 1.6 0.00 0.00 0.00 99 981.0
20260906121557 22 225 1.6 3.2 0.00 0.00 0.00 99 980.7
20260906121056 21 187 0.0 3.2 0.00 0.00 0.00 99 980.8
20260906120556 21 213 1.6 3.2 0.00 0.00 0.00 99 980.9
20260906120056 21 215 0.0 1.6 0.00 0.00 0.00 99 980.7
20260906115556 21 286 0.0 3.2 0.00 0.00 0.00 99 980.7
20260906115056 21 246 0.0 3.2 0.00 0.00 0.00 99 980.5
20260906114556 21 261 3.2 3.2 0.00 0.00 0.00 99 980.8
20260906114056 21 220 0.0 3.2 0.00 0.00 0.00 99 980.5
20260906113556 21 236 3.2 3.2 0.00 0.00 0.00 99 980.8
20260906113102 21 224 0.0 1.6 0.00 0.00 0.00 99 980.9
20260906112557 21 242 0.0 1.6 0.00 0.00 0.00 99 980.8
20260906112056 21 147 0.0 1.6 0.00 0.00 0.00 99 980.6
20260906111556 21 269 0.0 3.2 0.00 0.00 0.00 99 980.9
20260906111056 21 255 1.6 3.2 0.00 0.00 0.00 99 980.7
20260906110556 21 297 1.6 3.2 0.00 0.00 0.00 99 980.8
20260906110056 21 198 1.6 1.6 0.00 0.00 0.00 99 980.5
20260906105556 21 224 0.0 1.6 0.00 0.00 0.00 99 980.5
20260906105056 21 215 1.6 3.2 0.00 0.00 0.00 99 980.5
20260906104556 21 213 1.6 3.2 0.00 0.00 0.00 99 980.7
20260906104056 21 210 0.0 1.6 0.00 0.00 0.00 99 980.5
20260906103602 21 217 0.0 3.2 0.00 0.00 0.00 99 980.6
20260906103056 21 224 0.0 1.6 0.00 0.00 0.00 99 980.4
20260906102556 21 242 0.0 3.2 0.00 0.00 0.00 99 980.6
20260906102056 21 224 0.0 1.6 0.00 0.00 0.00 99 980.6
20260906101555 21 230 0.0 3.2 0.00 0.00 0.00 99 980.6
20260906101101 21 213 0.0 3.2 0.00 0.00 0.00 99 980.5
20260906100556 21 224 0.0 1.6 0.00 0.00 0.00 99 980.5
20260906100055 21 238 1.6 1.6 0.00 0.00 0.00 99 980.5
20260906095556 21 299 0.0 0.0 0.00 0.00 0.00 99 980.6
20260906095100 21 310 0.0 0.0 0.00 0.00 0.00 99 980.5
20260906094556 21 269 0.0 3.2 0.00 0.00 0.00 99 980.5
20260906094056 21 213 0.0 1.6 0.00 0.00 0.00 99 980.4
20260906093556 21 193 0.0 0.0 0.00 0.00 0.00 99 980.4
20260906093056 21 235 0.0 1.6 0.00 0.00 0.00 99 980.4
20260906092601 21 259 0.0 1.6 0.00 0.00 0.00 99 980.5
20260906092055 21 193 0.0 1.6 0.05 0.00 0.00 99 980.4
20260906091556 21 185 0.0 1.6 0.00 0.00 0.00 99 980.5
20260906091055 21 186 0.0 0.0 0.00 0.00 0.00 99 980.4
20260906090556 21 168 0.0 1.6 0.00 0.00 0.00 99 980.2
20260906090056 21 227 1.6 3.2 0.00 0.00 0.00 99 980.3
20260906085555 21 200 1.6 1.6 0.00 0.00 0.00 99 980.3
20260906085100 21 195 0.0 1.6 0.00 0.00 0.00 99 980.1
20260906084555 21 205 0.0 1.6 0.00 0.00 0.00 99 980.2
20260906084101 21 212 0.0 1.6 0.00 0.00 0.00 99 980.0
20260906083556 21 236 0.0 1.6 0.00 0.00 0.00 99 980.0
20260906083056 21 135 0.0 0.0 0.00 0.00 0.00 99 980.0
20260906082601 21 134 1.6 1.6 0.00 0.00 0.00 99 980.1
20260906082056 21 230 0.0 0.0 0.00 0.00 0.00 99 980.0
20260906081556 21 226 1.6 1.6 0.00 0.00 0.00 99 979.9
20260906081056 21 237 0.0 3.2 0.00 0.00 0.00 99 980.1
20260906080556 21 220 0.0 1.6 0.00 0.00 0.00 99 979.9
20260906080056 21 224 1.6 1.6 0.00 0.00 0.00 99 979.9
20260906075556 21 246 0.0 3.2 0.00 0.00 0.00 99 980.2
20260906075056 21 117 0.0 0.0 0.00 0.00 0.00 99 980.3
20260906074556 21 117 0.0 0.0 0.00 0.00 0.00 99 980.2
20260906074100 21 135 1.6 1.6 0.00 0.00 0.00 99 980.1
20260906073557 21 230 0.0 0.0 0.00 0.00 0.00 99 980.1
20260906073057 21 234 0.0 0.0 0.00 0.00 0.00 99 980.1
20260906072556 21 224 0.0 1.6 0.00 0.00 0.00 99 980.2
20260906072101 21 218 0.0 3.2 0.00 0.00 0.00 99 980.2
20260906071556 21 246 0.0 3.2 0.00 0.00 0.00 99 980.3
20260906071056 21 244 1.6 3.2 0.00 0.00 0.00 99 980.2
20260906070601 21 235 0.0 3.2 0.00 0.00 0.00 99 980.2
20260906070056 21 279 3.2 3.2 0.00 0.00 0.00 99 980.3
20260906065556 21 232 0.0 3.2 0.00 0.00 0.00 99 980.2
20260906065055 21 209 0.0 1.6 0.00 0.00 0.00 99 980.4
20260906064556 21 212 1.6 3.2 0.00 0.00 0.00 99 980.5
20260906064056 21 230 0.0 1.6 0.00 0.00 0.00 99 980.5
20260906063556 21 222 0.0 0.0 0.00 0.00 0.00 99 980.4
20260906063056 21 142 0.0 0.0 0.00 0.00 0.00 99 980.4
20260906062556 21 212 0.0 1.6 0.00 0.00 0.00 99 980.4
20260906062056 21 231 0.0 1.6 0.00 0.00 0.00 98 980.3
20260906061556 21 135 0.0 1.6 0.00 0.00 0.00 99 980.5
20260906061056 21 147 0.0 1.6 0.00 0.00 0.00 99 980.7
20260906060556 22 152 0.0 1.6 0.00 0.00 0.00 98 980.7
20260906060056 21 164 0.0 0.0 0.00 0.00 0.00 98 980.7
20260906055556 21 255 0.0 1.6 0.00 0.00 0.00 98 980.7
20260906055056 21 129 0.0 0.0 0.00 0.00 0.00 98 980.6
20260906054556 21 147 0.0 1.6 0.00 0.00 0.00 98 980.6
20260906054056 22 173 0.0 0.0 0.00 0.00 0.00 98 980.6
20260906053556 22 154 1.6 3.2 0.00 0.00 0.00 98 980.6
20260906053056 22 230 0.0 0.0 0.00 0.00 0.00 98 980.6
20260906052601 22 242 0.0 0.0 0.00 0.00 0.00 98 980.6
20260906052101 22 129 0.0 0.0 0.00 0.00 0.00 98 980.6
20260906051556 22 142 0.0 0.0 0.00 0.00 0.00 98 980.7
20260906051056 22 157 0.0 0.0 0.00 0.00 0.00 98 980.8
20260906050556 22 219 0.0 1.6 0.00 0.00 0.00 98 980.7
20260906050101 22 213 0.0 3.2 0.00 0.00 0.00 98 980.5
20260906045556 22 138 1.6 3.2 0.00 0.00 0.00 98 980.7
20260906045056 22 235 0.0 1.6 0.00 0.00 0.00 98 980.7
20260906044556 22 252 0.0 0.0 0.00 0.00 0.00 98 980.9
20260906044055 22 226 0.0 1.6 0.00 0.00 0.00 98 980.8
20260906043556 22 208 0.0 1.6 0.00 0.00 0.00 98 980.7
20260906043056 22 150 3.2 3.2 0.00 0.00 0.00 98 980.8
20260906042556 22 164 0.0 1.6 0.00 0.00 0.00 98 980.6
20260906042056 22 133 1.6 3.2 0.00 0.00 0.00 98 980.6
20260906041601 22 119 0.0 3.2 0.00 0.00 0.00 98 980.6
20260906041056 22 0 0.0 0.0 0.00 0.00 0.00 98 980.8
20260906040556 22 129 0.0 3.2 0.00 0.00 0.00 98 980.8
20260906040101 22 325 0.0 0.0 0.00 0.00 0.00 98 980.5
20260906035555 22 129 0.0 1.6 0.00 0.00 0.94 98 980.6
20260906035056 22 142 1.6 3.2 0.00 0.00 0.94 98 980.5
20260906034556 22 129 0.0 0.0 0.00 0.00 0.94 98 980.4
20260906034056 22 202 0.0 0.0 0.00 0.00 0.94 98 980.6
20260906033556 22 195 0.0 1.6 0.00 0.00 0.94 98 980.7
20260906033056 22 131 1.6 3.2 0.00 0.00 0.94 98 980.6
20260906032556 22 132 1.6 3.2 0.00 0.00 0.94 98 980.8
20260906032101 22 288 0.0 3.2 0.00 0.00 0.94 98 980.9
20260906031602 22 142 0.0 3.2 0.00 0.00 0.94 98 981.0
20260906031056 22 269 1.6 3.2 0.00 0.00 0.94 98 981.1
20260906030601 22 125 3.2 6.4 0.00 0.00 0.94 97 981.1
20260906030056 22 163 1.6 3.2 0.00 0.00 0.94 97 981.3
20260906025556 22 157 0.0 1.6 0.00 0.00 0.94 97 981.2
20260906025056 22 117 0.0 3.2 0.00 0.00 0.94 97 981.5
20260906024555 22 124 0.0 1.6 0.00 0.00 0.94 97 981.4
20260906024056 22 180 0.0 0.0 0.00 0.00 0.94 97 981.4
20260906023556 22 202 0.0 1.6 0.00 0.00 0.94 97 981.4
20260906023056 22 173 0.0 1.6 0.00 0.00 0.94 97 981.2
20260906022556 22 127 0.0 1.6 0.00 0.00 0.94 97 981.2
20260906022056 22 269 0.0 0.0 0.00 0.00 0.94 97 981.3
20260906021556 22 264 1.6 3.2 0.00 0.00 0.94 97 981.2
20260906021056 22 232 0.0 3.2 0.00 0.00 0.94 97 981.3
20260906020556 22 263 3.2 3.2 0.00 0.00 0.94 97 981.2
20260906020056 22 207 3.2 4.8 0.00 0.00 0.94 97 981.3
20260906015556 22 233 0.0 3.2 0.00 0.00 0.94 97 981.4
20260906015056 22 216 3.2 3.2 0.00 0.00 0.94 97 981.3
20260906014556 22 186 0.0 1.6 0.00 0.00 0.94 97 981.3
20260906014056 22 62 0.0 1.6 0.00 0.00 0.94 97 981.3
20260906013557 22 145 1.6 1.6 0.00 0.00 0.94 97 981.4
20260906013057 22 140 3.2 4.8 0.00 0.00 0.94 97 981.1
20260906012557 22 199 0.0 1.6 0.00 0.00 0.94 97 981.0
20260906012102 22 169 1.6 3.2 0.00 0.00 0.94 97 981.2
20260906011556 22 215 1.6 3.2 0.00 0.00 0.94 97 981.3
20260906011057 22 202 0.0 1.6 0.00 0.00 0.94 97 981.2
20260906010601 22 147 0.0 1.6 0.00 0.00 0.94 97 981.0
20260906010056 22 191 0.0 1.6 0.00 0.00 0.94 97 980.8
20260906005556 22 93 1.6 3.2 0.00 0.00 0.94 96 980.6
20260906005056 22 105 0.0 0.0 0.00 0.00 0.94 96 980.5
20260906004556 22 209 1.6 3.2 0.00 0.00 0.94 96 980.3
20260906004101 22 89 0.0 3.2 0.00 0.00 0.94 96 980.3
20260906003556 22 147 0.0 3.2 0.00 0.00 0.94 96 980.4
20260906003101 22 89 0.0 3.2 0.00 0.00 0.94 96 980.3
20260906002556 22 115 3.2 6.4 0.00 0.00 0.94 96 980.6
20260906002056 22 173 0.0 1.6 0.00 0.00 0.94 95 980.2
20260906001601 22 2 3.2 3.2 0.05 0.00 0.94 95 980.0
20260906001056 22 327 3.2 6.4 0.05 0.00 0.94 95 979.9
20260906000556 22 174 0.0 3.2 0.00 0.00 0.94 95 980.0
20260906000056 22 278 3.2 4.8 0.05 0.00 0.94 94 980.1
20260905235556 22 346 4.8 9.7 0.18 0.00 0.94 94 980.2
20260905235056 22 318 6.4 6.4 0.36 0.00 0.91 95 980.4
20260905234556 22 130 4.8 6.4 1.07 0.00 0.89 95 980.6
20260905234056 22 304 4.8 11.3 2.29 0.00 0.84 94 980.9
20260905233557 23 230 6.4 11.3 3.35 0.00 0.66 93 980.6
20260905233101 23 113 9.7 17.7 2.46 0.00 0.41 88 980.6
20260905232556 26 331 4.8 11.3 0.36 0.00 0.05 78 981.3
20260905232056 28 50 11.3 12.9 0.00 0.00 0.00 65 980.5
20260905231555 31 21 4.8 11.3 0.00 0.00 0.00 58 980.0
20260905231056 31 331 3.2 4.8 0.00 0.00 0.00 65 979.3
20260905230556 32 239 3.2 6.4 0.00 0.00 0.00 65 978.9
20260905230056 32 289 6.4 8.0 0.00 0.00 0.00 64 978.7
20260905225555 32 253 3.2 6.4 0.00 0.00 0.00 64 978.9
20260905225055 32 269 0.0 6.4 0.00 0.00 0.00 63 978.9
20260905224556 32 240 6.4 8.0 0.00 0.00 0.00 63 979.0
20260905224101 32 310 3.2 8.0 0.00 0.00 0.00 61 978.7
20260905223555 33 287 4.8 11.3 0.00 0.00 0.00 60 979.0
20260905223056 33 269 0.0 4.8 0.00 0.00 0.00 59 978.7
20260905222555 33 250 1.6 4.8 0.00 0.00 0.00 59 978.6
20260905222056 33 230 4.8 6.4 0.00 0.00 0.00 59 978.8
20260905221601 35 277 3.2 6.4 0.00 0.00 0.00 56 978.7
20260905221056 35 320 6.4 8.0 0.00 0.00 0.00 55 978.8
20260905220556 35 190 1.6 4.8 0.00 0.00 0.00 52 978.6
20260905220101 35 183 3.2 4.8 0.00 0.00 0.00 53 978.5
20260905215556 36 220 1.6 8.0 0.00 0.00 0.00 49 978.8
20260905215055 36 245 3.2 3.2 0.00 0.00 0.00 42 978.5
20260905214557 37 230 3.2 6.4 0.00 0.00 0.00 41 978.4
20260905214056 37 251 4.8 4.8 0.00 0.00 0.00 43 978.5
20260905213556 37 257 0.0 8.0 0.00 0.00 0.00 40 978.5
20260905213057 38 263 4.8 4.8 0.00 0.00 0.00 40 978.5
20260905212556 38 188 0.0 3.2 0.00 0.00 0.00 41 978.5
20260905212056 37 215 1.6 4.8 0.00 0.00 0.00 39 978.5
20260905211556 37 274 3.2 4.8 0.00 0.00 0.00 43 978.7
20260905211101 37 203 4.8 6.4 0.00 0.00 0.00 42 978.7
20260905210601 36 185 3.2 6.4 0.00 0.00 0.00 41 978.7
20260905210056 37 265 3.2 4.8 0.00 0.00 0.00 39 978.8
20260905205556 37 265 0.0 6.4 0.00 0.00 0.00 42 978.7
20260905205056 37 257 3.2 4.8 0.00 0.00 0.00 43 978.7
20260905204557 37 278 6.4 6.4 0.00 0.00 0.00 42 978.9
20260905204056 37 209 1.6 6.4 0.00 0.00 0.00 41 978.8
20260905203557 37 234 3.2 4.8 0.00 0.00 0.00 42 978.9
20260905203056 36 253 6.4 6.4 0.00 0.00 0.00 43 979.4
20260905202557 37 277 3.2 4.8 0.00 0.00 0.00 46 979.6
20260905202101 36 235 3.2 6.4 0.00 0.00 0.00 45 979.3
20260905201556 37 277 3.2 6.4 0.00 0.00 0.00 41 979.5
20260905201056 36 219 0.0 4.8 0.00 0.00 0.00 43 979.5
20260905200556 36 203 3.2 3.2 0.00 0.00 0.00 46 979.6
20260905200056 35 200 3.2 3.2 0.00 0.00 0.00 47 979.7
20260905195556 36 264 4.8 6.4 0.00 0.00 0.00 44 980.0
20260905195056 36 215 3.2 4.8 0.00 0.00 0.00 43 980.0
20260905194556 36 206 3.2 4.8 0.00 0.00 0.00 45 980.0
20260905194057 36 136 4.8 6.4 0.00 0.00 0.00 43 980.1
20260905193556 36 246 1.6 9.7 0.00 0.00 0.00 44 980.2
20260905193057 36 169 0.0 3.2 0.00 0.00 0.00 46 980.1
20260905192557 35 266 3.2 4.8 0.00 0.00 0.00 47 980.2
20260905192056 34 224 1.6 4.8 0.00 0.00 0.00 49 980.4
20260905191556 35 218 4.8 6.4 0.00 0.00 0.00 47 980.3
20260905191056 35 208 0.0 3.2 0.00 0.00 0.00 49 980.3
20260905190556 35 194 3.2 4.8 0.00 0.00 0.00 51 980.4
20260905190056 35 127 3.2 4.8 0.00 0.00 0.00 46 980.2
20260905185556 33 138 6.4 6.4 0.00 0.00 0.00 50 980.5
20260905185056 33 165 3.2 3.2 0.00 0.00 0.00 55 980.5
20260905184556 34 171 3.2 3.2 0.00 0.00 0.00 50 980.5
20260905184056 35 172 1.6 3.2 0.00 0.00 0.00 47 980.5
20260905183601 35 134 4.8 4.8 0.00 0.00 0.00 45 980.7
20260905183101 35 89 0.0 8.0 0.00 0.00 0.00 46 980.8
20260905182556 36 139 4.8 4.8 0.00 0.00 0.00 46 981.0
20260905182056 35 344 1.6 3.2 0.00 0.00 0.00 45 981.0
20260905181557 35 283 6.4 8.0 0.00 0.00 0.00 44 981.1
20260905181056 36 118 6.4 9.7 0.00 0.00 0.00 42 981.0
20260905180556 35 133 4.8 4.8 0.00 0.00 0.00 46 981.0
20260905180056 36 125 4.8 14.5 0.00 0.00 0.00 45 981.2
20260905175601 35 296 3.2 6.4 0.00 0.00 0.00 47 981.2
20260905175056 35 307 0.0 6.4 0.00 0.00 0.00 49 981.0
20260905174601 35 118 4.8 8.0 0.00 0.00 0.00 48 981.2
20260905174056 35 91 1.6 8.0 0.00 0.00 0.00 48 981.4
20260905173556 35 75 1.6 4.8 0.00 0.00 0.00 47 981.4
20260905173101 35 171 4.8 6.4 0.00 0.00 0.00 49 981.6
20260905172601 35 111 3.2 9.7 0.00 0.00 0.00 48 981.5
20260905172056 35 311 0.0 1.6 0.00 0.00 0.00 50 981.7
20260905171556 35 112 3.2 11.3 0.00 0.00 0.00 49 981.8
20260905171056 35 172 1.6 6.4 0.00 0.00 0.00 48 981.8
20260905170601 34 207 6.4 9.7 0.00 0.00 0.00 50 981.7
20260905170056 34 62 0.0 6.4 0.00 0.00 0.00 51 981.8
20260905165556 33 150 1.6 6.4 0.00 0.00 0.00 51 981.7
20260905165056 34 108 4.8 9.7 0.00 0.00 0.00 50 981.9
20260905164601 34 170 3.2 3.2 0.00 0.00 0.00 51 981.9
20260905164056 33 127 6.4 9.7 0.00 0.00 0.00 52 981.9
20260905163555 33 72 0.0 14.5 0.00 0.00 0.00 51 982.2
20260905163056 34 118 3.2 8.0 0.00 0.00 0.00 52 982.2
20260905162555 33 198 1.6 6.4 0.00 0.00 0.00 55 982.1
20260905162055 33 96 0.0 4.8 0.00 0.00 0.00 54 982.4
20260905161556 33 262 1.6 4.8 0.00 0.00 0.00 55 982.5
20260905161056 33 131 4.8 9.7 0.00 0.00 0.00 55 982.5
20260905160555 32 283 0.0 3.2 0.00 0.00 0.00 55 982.7
20260905160055 32 122 4.8 6.4 0.00 0.00 0.00 56 982.5
20260905155601 32 271 1.6 4.8 0.00 0.00 0.00 56 982.8
20260905155055 32 152 3.2 9.7 0.00 0.00 0.00 56 982.7
20260905154556 32 316 1.6 6.4 0.00 0.00 0.00 56 982.7
20260905154056 32 139 3.2 4.8 0.00 0.00 0.00 57 982.6
20260905153556 32 186 3.2 6.4 0.00 0.00 0.00 57 982.7
20260905153056 32 115 1.6 8.0 0.00 0.00 0.00 57 982.9
20260905152555 32 202 0.0 3.2 0.00 0.00 0.00 57 982.9
20260905152056 32 115 8.0 9.7 0.00 0.00 0.00 58 982.7
20260905151556 32 126 0.0 8.0 0.00 0.00 0.00 59 982.8
20260905151056 32 112 3.2 8.0 0.00 0.00 0.00 57 982.8
20260905150556 31 111 4.8 8.0 0.00 0.00 0.00 59 982.8
20260905150055 31 182 3.2 3.2 0.00 0.00 0.00 58 982.9
20260905145555 31 310 1.6 9.7 0.00 0.00 0.00 60 983.0
20260905145056 31 133 6.4 6.4 0.00 0.00 0.00 61 983.0
20260905144556 31 284 0.0 3.2 0.00 0.00 0.00 60 983.1
20260905144056 31 136 3.2 6.4 0.00 0.00 0.00 64 983.1
20260905143556 31 119 4.8 9.7 0.00 0.00 0.00 61 983.0
20260905143101 31 235 0.0 3.2 0.00 0.00 0.00 64 983.1
20260905142556 30 192 1.6 3.2 0.00 0.00 0.00 66 983.2
20260905142056 30 120 3.2 4.8 0.00 0.00 0.00 70 983.1
20260905141556 29 231 3.2 3.2 0.00 0.00 0.00 66 983.2
20260905141056 29 240 3.2 3.2 0.00 0.00 0.00 66 983.2
20260905140556 29 320 0.0 3.2 0.00 0.00 0.00 65 983.1
20260905140056 29 225 3.2 4.8 0.00 0.00 0.00 70 983.0
20260905135555 29 252 0.0 3.2 0.00 0.00 0.00 70 983.2
20260905135056 28 200 1.6 4.8 0.00 0.00 0.00 69 983.1
20260905134557 28 276 3.2 4.8 0.00 0.00 0.00 69 983.0
20260905134056 28 211 4.8 6.4 0.00 0.00 0.00 70 983.2
20260905133556 28 232 1.6 3.2 0.00 0.00 0.00 72 983.1
20260905133056 28 224 1.6 3.2 0.00 0.00 0.00 74 983.2
20260905132556 28 252 1.6 3.2 0.00 0.00 0.00 73 983.4
20260905132101 28 233 0.0 1.6 0.00 0.00 0.00 75 983.3
20260905131555 28 235 0.0 3.2 0.00 0.00 0.00 75 983.5
20260905131056 28 245 0.0 3.2 0.00 0.00 0.00 76 983.4
20260905130556 28 218 0.0 3.2 0.00 0.00 0.00 76 983.6
20260905130056 27 159 3.2 3.2 0.00 0.00 0.00 79 983.7